Reading, PA

5:28 AM EST on December 16, 2019 (GMT -0500)
Reading Regional-Spaatz

Weather History for KRDG - August, 2019

Change the Weather History Date:

Monday, August 12, 2019

  Actual Average Record
Temperature  
Mean Temperature 73 °F 74 °F  
Max Temperature 88 °F 84 °F 99 °F (1944)
Min Temperature 58 °F 63 °F 48 °F (1889)
Degree Days  
Heating Degree Days 0 0  
Month to date heating degree days 0 0  
Since 1 June heating degree days 16 25  
Since 1 July heating degree days 0 1  
Cooling Degree Days 8 9  
Month to date cooling degree days 135 108  
Year to date cooling degree days 873 660  
Since 1 June cooling degree days 768 600  
Growing Degree Days 23 (Base 50)    
Moisture  
Dew Point 63 °F    
Average Humidity 70    
Maximum Humidity 100    
Minimum Humidity 40    
Precipitation  
Precipitation 0.00 in 0.11 in 3.51 in (1955)
Month to date precipitation 0.86 1.39  
Year to date precipitation 39.15 26.71  
Sea Level Pressure  
Sea Level Pressure 29.97 in    
Wind  
Wind Speed 4 mph (SSW)    
Max Wind Speed 15 mph    
Max Gust Speed 19 mph    
Visibility 10 miles    
Events      
T = Trace of Precipitation, MM = Missing Value Source: NWS Daily Summary

Daily Weather History Graph

Daily Weather History Graph

Search for Another Location

Airport or City:

Astronomy

Aug. 12, 2019 Rise Set
Actual Time 6:11 AM EDT 8:05 PM EDT
Civil Twilight 5:42 AM EDT 8:34 PM EDT
Nautical Twilight 5:06 AM EDT 9:10 PM EDT
Astronomical Twilight 4:27 AM EDT 9:49 PM EDT
Moon 6:34 PM EDT (8/12) 3:18 AM EDT (8/12)
Length of Visible Light 14h 52m
Length of Day
13h 53m
Waxing Gibbous, 93% of the Moon is Illuminated
Aug 12
Waxing Gibbous
Aug 15
Full
Aug 23
Last Quarter
Aug 30
New
Sep 5
First Quarter

Hourly Weather History & Observations

Time (EDT) Temp. Heat Index Dew Point Humidity Pressure Visibility Wind Dir Wind Speed Gust Speed Precip Events Conditions
12:54 AM 61.0 °F - 60.1 °F 97% 30.03 in 10.0 mi Calm Calm - N/A   Clear
1:54 AM 61.0 °F - 59.0 °F 93% 30.03 in 10.0 mi Calm Calm - N/A   Clear
2:54 AM 61.0 °F - 59.0 °F 93% 30.03 in 10.0 mi Calm Calm - N/A   Clear
3:54 AM 60.1 °F - 59.0 °F 96% 30.03 in 10.0 mi Calm Calm - N/A   Clear
4:54 AM 59.0 °F - 59.0 °F 100% 30.02 in 10.0 mi Calm Calm - N/A   Clear
5:54 AM 59.0 °F - 57.9 °F 96% 30.03 in 10.0 mi Calm Calm - N/A   Clear
6:54 AM 61.0 °F - 59.0 °F 93% 30.03 in 10.0 mi Calm Calm - N/A   Clear
7:54 AM 64.9 °F - 61.0 °F 87% 30.04 in 10.0 mi Calm Calm - N/A   Clear
8:54 AM 71.1 °F - 62.1 °F 73% 30.04 in 10.0 mi Calm Calm - N/A   Clear
9:54 AM 77.0 °F - 61.0 °F 58% 30.02 in 10.0 mi SW 3.5 mph - N/A   Clear
10:54 AM 80.1 °F 81.1 °F 61.0 °F 52% 30.01 in 10.0 mi West 5.8 mph - N/A   Clear
11:54 AM 82.0 °F 82.4 °F 60.1 °F 47% 30.00 in 10.0 mi WSW 8.1 mph - N/A   Clear
12:54 PM 84.9 °F 84.8 °F 60.1 °F 43% 29.99 in 10.0 mi WSW 6.9 mph - N/A   Clear
1:54 PM 86.0 °F 85.7 °F 60.1 °F 41% 29.96 in 10.0 mi SSW 8.1 mph - N/A   Partly Cloudy
2:54 PM 87.1 °F 87.0 °F 61.0 °F 41% 29.94 in 10.0 mi SW 6.9 mph 17.3 mph N/A   Partly Cloudy
3:54 PM 87.1 °F 87.8 °F 63.0 °F 44% 29.92 in 10.0 mi South 6.9 mph - N/A   Partly Cloudy
4:54 PM 87.1 °F 87.8 °F 63.0 °F 44% 29.89 in 10.0 mi SW 11.5 mph - N/A   Clear
5:54 PM 86.0 °F 88.2 °F 66.0 °F 51% 29.88 in 10.0 mi SSW 11.5 mph - N/A   Clear
6:54 PM 84.9 °F 87.6 °F 66.9 °F 55% 29.88 in 10.0 mi South 9.2 mph - N/A   Clear
7:54 PM 82.0 °F 84.5 °F 66.9 °F 60% 29.88 in 10.0 mi South 5.8 mph - N/A   Clear
8:54 PM 79.0 °F - 68.0 °F 69% 29.88 in 10.0 mi South 5.8 mph - N/A   Clear
9:54 PM 78.1 °F - 69.1 °F 74% 29.89 in 10.0 mi Calm Calm - N/A   Clear
10:54 PM 78.1 °F - 69.1 °F 74% 29.88 in 10.0 mi Calm Calm - N/A   Overcast
11:54 PM 78.1 °F - 69.1 °F 74% 29.87 in 10.0 mi SSE 3.5 mph - N/A   Overcast